This is the latest recevied weather packets stored in our database for station/object WB3IGR. If no packets are shown the sender has not sent any weather packets the latest 10 day(s).
| Time | Temp. | Humidity | Pressure | Rain* | Wind** | Luminosity | Snow |
|---|---|---|---|---|---|---|---|
| 1777597810 | 10.56° C | 75% | 1013.6 hPa | 0 mm | - | 0 W/m² | - |
| 1777597503 | 11.11° C | 76% | 1013.7 hPa | 0 mm | - | 0 W/m² | - |
| 1777597200 | 11.11° C | 76% | 1013.4 hPa | 0 mm | - | 0 W/m² | - |
| 1777596895 | 11.11° C | 76% | 1013.3 hPa | 0 mm | - | 0 W/m² | - |
| 1777596591 | 11.11° C | 76% | 1013.2 hPa | 0 mm | - | 0 W/m² | - |
| 1777596283 | 11.11° C | 76% | 1013.4 hPa | 0 mm | - | 0 W/m² | - |
| 1777595980 | 11.11° C | 76% | 1013.2 hPa | 0 mm | - | 0 W/m² | - |
| 1777595675 | 11.11° C | 77% | 1013.2 hPa | 0 mm | - | 0 W/m² | - |
| 1777595371 | 11.11° C | 79% | 1013 hPa | 0 mm | - | 0 W/m² | - |
| 1777595068 | 11.11° C | 80% | 1012.9 hPa | 0 mm | - | 0 W/m² | - |
| 1777594764 | 11.11° C | 81% | 1012.8 hPa | 0 mm | - | 0 W/m² | - |
| 1777594460 | 11.11° C | 82% | 1012.6 hPa | 0 mm | - | 0 W/m² | - |
| 1777594156 | 11.11° C | 82% | 1012.5 hPa | 0 mm | - | 0 W/m² | - |
| 1777593852 | 11.11° C | 82% | 1012.5 hPa | 0 mm | - | 0 W/m² | - |
| 1777593549 | 11.11° C | 82% | 1012.3 hPa | 0 mm | - | 1 W/m² | - |
| 1777593243 | 11.11° C | 82% | 1012.4 hPa | 0 mm | - | 3 W/m² | - |
| 1777592943 | 11.11° C | 80% | 1012.4 hPa | 0 mm | - | 5 W/m² | - |
| 1777592637 | 11.11° C | 80% | 1012.2 hPa | 0 mm | - | 7 W/m² | - |
| 1777592334 | 11.11° C | 80% | 1012.4 hPa | 0 mm | - | 8 W/m² | - |
| 1777592030 | 11.67° C | 79% | 1012.1 hPa | 0 mm | - | 11 W/m² | - |
| 1777591727 | 11.67° C | 79% | 1012.1 hPa | 0 mm | - | 15 W/m² | - |
| 1777591423 | 11.67° C | 78% | 1012 hPa | 0 mm | - | 19 W/m² | - |
| 1777591118 | 11.67° C | 77% | 1012 hPa | 0 mm | - | 19 W/m² | - |
| 1777590814 | 11.67° C | 76% | 1011.9 hPa | 0 mm | - | 20 W/m² | - |
| 1777590510 | 11.67° C | 75% | 1011.7 hPa | 0 mm | - | 28 W/m² | - |
* Rain latest hour (hover to see other rain measurements)
** Current wind speed in m/s (hover to see current wind gust speed)